GW2089 Weather Reports


time (UTC)temp
C
wind
direction
speed
KPH
gust
KPH
rain 1hr
cm
rain 24hr
cm
rain mn
cm
humidity
%
barometer
mb
20260905152144 16 249 3.2 3.2 0.00 0.20 0.20 77 996.8
20260905151638 16 249 3.2 3.2 0.00 0.20 0.20 77 996.8
20260905151134 16 236 4.8 4.8 0.00 0.20 0.20 77 996.8
20260905150629 16 228 1.6 3.2 0.00 0.20 0.20 77 996.7
20260905150128 16 9 0.0 1.6 0.00 0.20 0.20 76 996.6
20260905145626 16 1 0.0 1.6 0.00 0.20 0.20 76 996.8
20260905145125 16 261 3.2 3.2 0.00 0.20 0.20 77 996.7
20260905144620 16 291 0.0 0.0 0.00 0.20 0.20 76 996.8
20260905144119 17 24 1.6 1.6 0.00 0.20 0.20 75 996.7
20260905143614 17 239 1.6 1.6 0.00 0.20 0.20 73 996.7
20260905143109 17 261 3.2 3.2 0.00 0.20 0.20 71 996.8
20260905142607 17 272 3.2 3.2 0.00 0.20 0.20 71 996.4
20260905142102 17 253 1.6 3.2 0.00 0.20 0.20 70 996.6
20260905141601 17 309 1.6 1.6 0.00 0.20 0.20 70 996.4
20260905141058 17 231 1.6 3.2 0.00 0.20 0.20 69 996.4
20260905140553 18 123 4.8 8.0 0.00 0.20 0.20 68 996.4
20260905140052 17 234 3.2 3.2 0.00 0.20 0.20 68 996.3
20260905135548 17 252 1.6 3.2 0.00 0.20 0.20 68 996.4
20260905135047 17 193 4.8 4.8 0.00 0.20 0.20 70 996.3
20260905134543 17 217 1.6 3.2 0.00 0.20 0.20 70 996.2
20260905134041 17 335 0.0 1.6 0.00 0.20 0.20 73 996.4
20260905133536 17 273 0.0 0.0 0.00 0.20 0.20 74 996.2
20260905133031 17 10 0.0 0.0 0.00 0.20 0.20 77 996.2
20260905132531 17 18 3.2 4.8 0.00 0.20 0.20 77 996.1
20260905132026 17 302 1.6 1.6 0.00 0.20 0.20 77 996.2
20260905131521 17 288 0.0 1.6 0.00 0.20 0.20 78 996.2
20260905131016 16 285 0.0 1.6 0.00 0.20 0.20 85 995.8
20260905130515 16 354 0.0 1.6 0.00 0.20 0.20 85 996.0
20260905130011 16 246 1.6 1.6 0.13 0.20 0.20 84 996.0
20260905125505 16 231 1.6 3.2 0.13 0.20 0.20 83 996.1
20260905125000 16 267 1.6 1.6 0.00 0.18 0.18 81 996.2
20260905124457 17 252 1.6 1.6 0.00 0.18 0.18 78 996.0
20260905123952 17 356 0.0 0.0 0.00 0.18 0.18 76 995.9
20260905123448 17 19 0.0 1.6 0.00 0.18 0.18 75 996.0
20260905122948 17 271 1.6 1.6 0.00 0.18 0.18 73 996.1
20260905122443 17 209 0.0 0.0 0.00 0.18 0.18 74 995.9
20260905121938 17 252 1.6 1.6 0.00 0.18 0.18 73 996.1
20260905121434 18 285 1.6 1.6 0.00 0.18 0.18 70 995.9
20260905120933 19 218 6.4 9.7 0.00 0.18 0.18 68 995.7
20260905120427 18 331 1.6 1.6 0.00 0.18 0.18 71 995.7
20260905115923 17 242 1.6 1.6 0.00 0.18 0.18 74 995.6
20260905115422 17 282 1.6 1.6 0.00 0.18 0.18 80 995.7
20260905114917 17 247 4.8 4.8 0.00 0.18 0.18 80 995.4
20260905114416 17 341 0.0 0.0 0.00 0.18 0.18 80 995.7
20260905113910 17 245 6.4 9.7 0.00 0.18 0.18 78 995.5
20260905113405 17 262 3.2 4.8 0.00 0.18 0.18 79 995.4
20260905112901 17 300 4.8 8.0 0.00 0.18 0.18 79 995.4
20260905112356 17 283 1.6 3.2 0.00 0.18 0.18 80 995.5
20260905111850 16 277 0.0 1.6 0.00 0.18 0.18 83 995.6
20260905111345 16 255 0.0 0.0 0.00 0.18 0.18 84 995.3
20260905110844 16 327 3.2 3.2 0.00 0.18 0.18 83 995.2
20260905110338 16 241 0.0 1.6 0.00 0.18 0.18 83 995.3
20260905105834 16 266 3.2 4.8 0.00 0.18 0.18 83 995.2
20260905105333 16 218 3.2 4.8 0.00 0.18 0.18 84 995.3
20260905104827 16 263 1.6 1.6 0.00 0.18 0.18 85 995.3
20260905104324 16 268 3.2 3.2 0.00 0.18 0.18 85 994.9
20260905103823 16 345 1.6 1.6 0.00 0.18 0.18 84 994.9
20260905103319 16 12 0.0 1.6 0.00 0.18 0.18 83 994.9
20260905102815 16 303 0.0 0.0 0.00 0.18 0.18 83 994.7
20260905102311 16 266 0.0 1.6 0.00 0.18 0.18 82 994.8
20260905101811 16 261 0.0 1.6 0.00 0.18 0.18 82 994.8
20260905101309 16 272 0.0 1.6 0.00 0.18 0.18 82 994.7
20260905100804 16 284 1.6 3.2 0.00 0.18 0.18 83 994.6
20260905100300 16 253 0.0 1.6 0.00 0.18 0.18 84 994.7
20260905095759 16 358 1.6 1.6 0.00 0.18 0.18 84 994.5
20260905095259 16 327 0.0 0.0 0.00 0.18 0.18 86 994.6
20260905094754 16 264 0.0 1.6 0.00 0.18 0.18 87 994.6
20260905094249 15 275 0.0 0.0 0.00 0.18 0.18 88 994.4
20260905093748 15 239 1.6 3.2 0.00 0.18 0.18 89 994.7
20260905093244 15 208 4.8 8.0 0.00 0.18 0.18 90 994.6
20260905092740 15 266 3.2 4.8 0.00 0.18 0.18 90 994.5
20260905092235 15 270 0.0 0.0 0.00 0.18 0.18 90 994.5
20260905091735 15 228 1.6 3.2 0.00 0.18 0.18 90 994.3
20260905091229 15 262 1.6 1.6 0.00 0.18 0.18 90 994.4
20260905090723 15 252 3.2 4.8 0.00 0.18 0.18 91 994.4
20260905090219 15 228 9.7 14.5 0.00 0.18 0.18 91 994.2
20260905085718 14 209 4.8 8.0 0.00 0.18 0.18 91 994.1
20260905085212 15 295 1.6 3.2 0.00 0.18 0.18 92 994.2
20260905084707 15 267 1.6 3.2 0.00 0.18 0.18 93 994.1
20260905084206 14 245 3.2 4.8 0.00 0.18 0.18 93 994.3
20260905083701 14 219 1.6 1.6 0.00 0.18 0.18 94 994.2
20260905083158 14 215 3.2 4.8 0.00 0.18 0.18 94 993.9
20260905082653 14 246 1.6 1.6 0.00 0.18 0.18 94 994.1
20260905082148 14 263 3.2 3.2 0.00 0.18 0.18 94 994.0
20260905081643 14 350 0.0 0.0 0.00 0.18 0.18 95 994.0
20260905081138 14 249 1.6 1.6 0.00 0.18 0.18 95 993.9
20260905080633 14 209 1.6 3.2 0.00 0.18 0.18 95 994.0
20260905080127 14 272 1.6 3.2 0.00 0.18 0.18 96 994.0
20260905075626 13 243 1.6 1.6 0.00 0.18 0.18 96 994.0
20260905075126 13 242 0.0 1.6 0.00 0.18 0.18 96 993.8
20260905074625 13 277 0.0 0.0 0.00 0.18 0.18 96 993.6
20260905074120 13 258 0.0 0.0 0.00 0.18 0.18 96 993.7
20260905073616 13 241 4.8 4.8 0.00 0.18 0.18 96 993.8
20260905073112 13 238 3.2 3.2 0.00 0.18 0.18 96 993.5
20260905072611 13 251 3.2 3.2 0.18 0.18 0.18 96 993.7
20260905072106 13 242 1.6 3.2 0.18 0.18 0.18 96 993.7
20260905071603 13 225 3.2 3.2 0.00 0.15 0.15 96 993.8
20260905071103 13 247 0.0 0.0 0.13 0.15 0.15 96 993.8
20260905070558 13 301 0.0 0.0 0.13 0.15 0.15 96 993.7
20260905070054 13 239 0.0 0.0 0.30 0.13 0.13 96 993.5
20260905065552 13 215 3.2 3.2 0.48 0.13 0.13 96 993.7
20260905065047 13 236 1.6 1.6 0.18 0.08 0.08 96 993.6
20260905064542 13 254 1.6 1.6 0.00 0.05 0.05 96 993.6
20260905064037 13 271 0.0 0.0 0.00 0.05 0.05 95 993.5
20260905063536 13 235 3.2 3.2 0.13 0.05 0.05 95 993.5
20260905063033 13 216 1.6 3.2 0.13 0.05 0.05 95 993.5
20260905062532 13 256 0.0 1.6 0.00 0.03 0.03 95 993.4
20260905062027 13 250 0.0 0.0 0.00 0.03 0.03 95 993.5
20260905061522 13 218 3.2 3.2 0.00 0.03 0.03 95 993.4
20260905061021 13 239 4.8 4.8 0.00 0.03 0.03 95 993.3
20260905060518 13 240 0.0 0.0 0.00 0.03 0.03 95 993.4
20260905060013 13 265 0.0 0.0 0.00 0.03 0.03 95 993.3
20260905055511 13 276 1.6 1.6 0.00 0.03 0.03 95 993.5
20260905055006 13 248 1.6 3.2 0.00 0.03 0.03 95 993.4
20260905054502 13 266 4.8 4.8 0.00 0.03 0.03 95 993.3
20260905053957 13 252 1.6 3.2 0.00 0.03 0.03 95 993.2
20260905053452 13 249 3.2 3.2 0.18 0.03 0.03 95 993.2
20260905052948 13 251 0.0 1.6 0.18 0.03 0.03 94 993.0
20260905052447 13 239 1.6 3.2 0.00 0.00 0.00 94 993.2
20260905051947 13 248 1.6 3.2 0.00 0.00 0.00 94 993.1
20260905051442 13 237 1.6 3.2 0.00 0.00 0.00 95 993.2
20260905050939 12 269 0.0 1.6 0.00 0.00 0.00 95 993.1
20260905050435 12 207 4.8 4.8 0.00 0.00 0.00 95 992.9
20260905045931 12 222 6.4 8.0 0.00 0.00 0.00 95 992.9
20260905045425 12 268 6.4 8.0 0.00 0.00 0.00 95 992.8
20260905044920 12 279 1.6 3.2 0.00 0.00 0.00 95 992.8
20260905044410 12 254 0.0 0.0 0.00 0.00 0.00 95 992.8
20260905043909 12 265 0.0 0.0 0.00 0.00 0.00 95 993.0
20260905043404 12 252 0.0 1.6 0.00 0.00 0.00 95 993.0
20260905042903 12 279 0.0 0.0 0.00 0.00 0.00 95 992.9
20260905042358 12 271 0.0 0.0 0.00 0.00 0.00 95 992.7
20260905041853 12 235 1.6 1.6 0.00 0.00 0.00 95 993.0
20260905041349 12 289 0.0 0.0 0.00 0.00 0.00 95 992.9
20260905040844 12 238 1.6 1.6 0.00 0.00 0.00 95 992.8
20260905040343 12 237 1.6 1.6 0.00 0.00 0.00 95 992.8
20260905035842 12 272 0.0 0.0 0.00 0.00 0.00 95 992.9